EW0159 Weather Reports


Display with metric or nautical units.
time (UTC)temp
F
wind
direction
speed
MPH
gust
MPH
rain 1hr
in
rain 24hr
in
rain mn
in
humidity
%
barometer
mb
20260507050038 54 307 0.0 2.0 0.00 0.00 0.00 81 1021.3
20260507044547 55 88 0.0 3.0 0.00 0.00 0.00 80 1021.2
20260507043034 56 338 0.0 1.0 0.00 0.00 0.00 79 1021.2
20260507041533 57 338 1.0 4.0 0.00 0.00 0.00 77 1021.1
20260507040040 57 110 0.0 3.0 0.00 0.00 0.00 76 1021.0
20260507034539 58 94 0.0 7.0 0.00 0.00 0.00 76 1020.9
20260507033043 59 19 0.0 4.0 0.00 0.00 0.00 75 1020.7
20260507031544 59 326 0.0 3.0 0.00 0.00 0.00 75 1020.4
20260507030032 60 5 1.0 7.0 0.00 0.00 0.00 75 1020.2
20260507024528 60 95 0.0 4.0 0.00 0.00 0.00 75 1020.0
20260507023028 61 330 0.0 2.0 0.00 0.00 0.00 75 1019.9
20260507021527 61 273 0.0 4.0 0.00 0.00 0.00 74 1019.8
20260507020027 62 336 3.0 6.0 0.00 0.00 0.00 73 1019.8
20260507014537 63 12 2.0 6.0 0.00 0.00 0.00 73 1019.9
20260507013034 63 348 1.0 8.0 0.00 0.00 0.00 74 1019.9
20260507011532 64 128 3.0 7.0 0.00 0.00 0.00 73 1019.9
20260507010031 63 346 2.0 8.0 0.00 0.00 0.00 74 1019.9
20260507004524 64 5 3.0 7.0 0.00 0.00 0.00 73 1019.8
20260507003024 65 21 2.0 5.0 0.00 0.00 0.00 73 1019.9
20260507001528 65 58 2.0 5.0 0.00 0.00 0.00 72 1019.7
20260507000023 65 57 3.0 7.0 0.00 0.00 0.00 74 1019.8
20260506234522 64 68 3.0 7.0 0.00 0.00 0.00 74 1019.8
20260506233022 64 31 1.0 5.0 0.00 0.00 0.00 75 1019.8
20260506231522 65 69 3.0 6.0 0.00 0.00 0.00 75 1019.9
20260506230022 66 25 2.0 5.0 0.00 0.00 0.00 73 1019.9
20260506224521 66 38 3.0 5.0 0.00 0.00 0.00 73 1020.0
20260506223020 66 65 3.0 8.0 0.00 0.00 0.00 73 1020.2
20260506221519 66 60 3.0 7.0 0.00 0.00 0.00 73 1020.2
20260506220018 67 223 2.0 4.0 0.00 0.00 0.00 72 1020.2
20260506214514 65 309 2.0 5.0 0.00 0.00 0.00 73 1020.2
20260506213014 64 15 1.0 6.0 0.00 0.00 0.00 75 1020.4
20260506211520 65 139 1.0 8.0 0.00 0.00 0.00 75 1020.3
20260506210016 65 32 4.0 9.0 0.00 0.00 0.00 75 1020.4
20260506204511 65 171 3.0 6.0 0.00 0.00 0.00 76 1020.5
20260506203011 65 89 1.0 3.0 0.00 0.00 0.00 75 1020.5
20260506201510 65 123 3.0 5.0 0.00 0.00 0.00 75 1020.4
20260506200007 65 50 1.0 6.0 0.00 0.00 0.00 76 1020.5
20260506194506 64 173 3.0 5.0 0.00 0.00 0.00 77 1020.5
20260506193003 63 67 0.0 4.0 0.00 0.00 0.00 76 1020.6
20260506191502 63 165 2.0 5.0 0.00 0.00 0.00 79 1020.8
20260506190001 62 163 2.0 5.0 0.00 0.00 0.00 79 1020.8
20260506184559 62 317 1.0 3.0 0.00 0.00 0.00 80 1020.8
20260506183056 60 226 1.0 3.0 0.00 0.00 0.00 81 1020.8
20260506181558 60 139 0.0 3.0 0.00 0.00 0.00 80 1020.8
20260506180053 60 109 2.0 7.0 0.00 0.00 0.00 81 1020.6
20260506174550 59 186 2.0 4.0 0.00 0.00 0.00 82 1020.7
20260506173122 59 161 2.0 4.0 0.00 0.00 0.00 82 1020.7
20260506171545 58 148 1.0 4.0 0.00 0.00 0.00 82 1020.6
20260506170044 58 170 0.0 3.0 0.00 0.00 0.00 82 1020.7
20260506164541 58 172 2.0 4.0 0.00 0.00 0.00 82 1020.6
20260506163040 57 180 2.0 4.0 0.00 0.00 0.00 82 1020.6
20260506161537 57 163 0.0 2.0 0.00 0.00 0.00 82 1020.8
20260506160035 57 142 0.0 3.0 0.00 0.00 0.00 82 1020.8
20260506154533 57 179 2.0 4.0 0.00 0.00 0.00 82 1020.3
20260506153031 57 200 3.0 6.0 0.00 0.00 0.00 82 1020.0
20260506151531 57 130 3.0 6.0 0.00 0.00 0.00 82 1019.9
20260506150029 56 166 1.0 3.0 0.00 0.00 0.00 81 1020.2
20260506144533 56 210 1.0 2.0 0.00 0.00 0.00 80 1020.5
20260506143027 56 210 0.0 1.0 0.00 0.00 0.00 80 1020.4
20260506141529 55 210 0.0 1.0 0.00 0.00 0.00 79 1020.1
20260506140023 55 210 0.0 2.0 0.00 0.00 0.00 79 1019.9
20260506134521 55 210 0.0 2.0 0.00 0.00 0.00 78 1019.5
20260506133021 55 210 0.0 0.0 0.00 0.00 0.00 77 1019.7
20260506131529 55 210 0.0 0.0 0.00 0.00 0.00 77 1019.6
20260506130016 55 210 0.0 0.0 0.00 0.00 0.00 77 1019.4
20260506124514 55 210 0.0 0.0 0.00 0.00 0.00 78 1019.1
20260506123014 55 210 0.0 0.0 0.00 0.00 0.00 78 1019.0
20260506121513 55 210 0.0 0.0 0.00 0.00 0.00 78 1018.9
20260506120017 55 210 0.0 0.0 0.00 0.00 0.00 78 1019.0
20260506114509 56 210 0.0 0.0 0.00 0.00 0.00 79 1018.9
20260506113009 56 210 0.0 0.0 0.00 0.00 0.00 78 1018.9
20260506111507 56 210 0.0 0.0 0.00 0.00 0.00 78 1018.7
20260506110006 56 180 0.0 1.0 0.00 0.00 0.00 79 1018.6
20260506104504 56 16 0.0 1.0 0.00 0.00 0.00 78 1018.4
20260506103003 56 16 0.0 0.0 0.00 0.00 0.00 78 1018.2
20260506101501 56 16 0.0 0.0 0.00 0.00 0.00 79 1018.0
20260506100120 56 16 0.0 0.0 0.00 0.00 0.00 79 1017.9
20260506094558 56 16 0.0 0.0 0.00 0.00 0.00 79 1017.8
20260506093057 56 16 0.0 1.0 0.00 0.00 0.00 79 1017.6
20260506091556 56 16 0.0 1.0 0.00 0.00 0.00 78 1017.6
20260506090054 56 16 0.0 0.0 0.00 0.00 0.00 79 1017.6
20260506084620 56 16 0.0 1.0 0.00 0.00 0.00 79 1017.6
20260506083054 56 16 0.0 1.0 0.00 0.00 0.00 79 1017.6
20260506081555 56 59 0.0 1.0 0.00 0.00 0.00 79 1017.6
20260506073049 56 59 0.0 1.0 0.00 0.00 0.00 79 1017.2
20260506071545 56 59 0.0 1.0 0.00 0.00 0.00 80 1017.2
20260506061540 57 291 0.0 2.0 0.00 0.00 0.00 81 1016.8